This demonstration page uses our WeatherBlox Daily Observations layout. Learn more.

Left ArrowRight Arrow

Hourly Observations for February 22, 2022

Temp ( °F °C ) Dew Point ( °F °C ) Humidity (%) Winds ( mph kmh ) Pressure ( in mb ) Visibility ( mi km ) Precip ( " mm )
12:53 am 00:53 Clear 40 4.4 26 -3.3 58 58 SSE 7 11 29.86 1011 10 16 0.00 0.00
1:53 am 01:53 Clear 42 5.6 26 -3.3 53 53 Calm 29.87 1011 10 16 0.00 0.00
2:53 am 02:53 Clear 36 2.2 26 -3.3 67 67 NNE 3 6 29.87 1012 10 16 0.00 0.00
3:53 am 03:53 Clear 34 1.1 26 -3.3 73 73 Calm 29.87 1011 10 16 0.00 0.00
4:53 am 04:53 Clear 30 -1.1 25 -3.9 82 82 NE 6 9 29.88 1012 10 16 0.00 0.00
5:53 am 05:53 Mostly Clear 30 -1.1 24 -4.4 79 79 W 3 6 29.90 1012 10 16 0.00 0.00
6:53 am 06:53 Partly Cloudy 30 -1.1 24 -4.4 79 79 Calm 29.91 1013 10 16 0.00 0.00
7:53 am 07:53 Sunny 32 0 26 -3.3 79 79 Calm 29.92 1013 10 16 0.00 0.00
8:53 am 08:53 Sunny 40 4.4 27 -2.8 60 60 NNW 3 6 29.93 1014 10 16 0.00 0.00
9:53 am 09:53 Mostly Sunny 44 6.7 29 -1.7 55 55 Calm 29.93 1014 10 16 0.00 0.00
10:53 am 10:53 Sunny 49 9.4 26 -3.3 41 41 N 5 7 29.92 1013 10 16 0.00 0.00
11:53 am 11:53 Sunny 51 10.6 21 -6.1 31 31 VRB 3 6 29.90 1013 10 16 0.00 0.00
12:53 pm 12:53 Cloudy 50 10 21 -6.1 32 32 NNE 15 24 29.88 1012 10 16 0.00 0.00
1:53 pm 13:53 Sunny 53 11.7 21 -6.1 28 28 N 22 35 29.85 1011 10 16 0.00 0.00
2:53 pm 14:53 Partly Cloudy 50 10 16 -8.9 26 26 N 10 17 29.86 1011 10 16 0.00 0.00
3:53 pm 15:53 Sunny 52 11.1 17 -8.3 25 25 VRB 6 9 29.86 1011 10 16 0.00 0.00
4:53 pm 16:53 Mostly Cloudy 49 9.4 21 -6.1 33 33 N 10 17 29.87 1012 10 16 0.00 0.00
5:53 pm 17:53 Clear 47 8.3 22 -5.6 37 37 NNW 5 7 29.88 1012 10 16 0.00 0.00
6:53 pm 18:53 Clear 43 6.1 24 -4.4 47 47 N 3 6 29.90 1013 10 16 0.00 0.00
7:53 pm 19:53 Clear 42 5.6 21 -6.1 43 43 N 7 11 29.93 1013 10 16 0.00 0.00
8:53 pm 20:53 Clear 45 7.2 14 -10 29 29 N 13 20 29.94 1014 10 16 0.00 0.00
9:53 pm 21:53 Clear 43 6.1 14 -10 31 31 NW 7 11 29.98 1015 10 16 0.00 0.00
10:53 pm 22:53 Clear 42 5.6 15 -9.4 33 33 N 13 20 29.99 1016 10 16 0.00 0.00
11:53 pm 23:53 Clear 42 5.6 15 -9.4 33 33 N 15 24 30.00 1016 10 16 0.00 0.00

Powered by AerisWeather